TimeEST,TemperatureF,Dew PointF,Humidity,Sea Level PressureIn,VisibilityMPH,Wind Direction,Wind SpeedMPH,Gust SpeedMPH,PrecipitationIn,Events,Conditions,WindDirDegrees,DateUTC
12:51 AM,34.0,19.9,56,30.48,10.0,North,8.1,21.9,N/A,,Clear,350,2013-11-25 05:51:00
1:51 AM,34.0,21.0,59,30.48,10.0,Variable,5.8,-,N/A,,Clear,0,2013-11-25 06:51:00
2:51 AM,34.0,21.9,61,30.48,10.0,North,9.2,-,N/A,,Clear,350,2013-11-25 07:51:00
3:51 AM,34.0,23.0,64,30.48,10.0,North,8.1,-,N/A,,Clear,350,2013-11-25 08:51:00
4:51 AM,34.0,23.0,64,30.50,10.0,North,9.2,-,N/A,,Clear,360,2013-11-25 09:51:00
5:51 AM,34.0,23.0,64,30.52,10.0,Variable,6.9,-,N/A,,Partly Cloudy,0,2013-11-25 10:51:00
6:51 AM,34.0,24.1,67,30.55,10.0,Variable,5.8,-,N/A,,Clear,0,2013-11-25 11:51:00
7:51 AM,35.1,25.0,67,30.56,10.0,Variable,5.8,-,N/A,,Clear,0,2013-11-25 12:51:00
8:51 AM,37.0,26.1,65,30.56,10.0,Variable,6.9,18.4,N/A,,Clear,0,2013-11-25 13:51:00
9:51 AM,39.0,28.0,65,30.57,10.0,Variable,5.8,18.4,N/A,,Clear,0,2013-11-25 14:51:00
10:51 AM,41.0,28.9,62,30.56,10.0,NNE,10.4,17.3,N/A,,Clear,20,2013-11-25 15:51:00
11:51 AM,41.0,28.9,62,30.54,10.0,NNE,11.5,19.6,N/A,,Clear,30,2013-11-25 16:51:00
12:51 PM,42.1,28.9,60,30.52,10.0,NNE,9.2,-,N/A,,Clear,20,2013-11-25 17:51:00
1:51 PM,43.0,28.9,58,30.52,10.0,Variable,5.8,-,N/A,,Clear,0,2013-11-25 18:51:00
2:51 PM,43.0,28.9,58,30.51,10.0,Variable,6.9,-,N/A,,Clear,0,2013-11-25 19:51:00
3:51 PM,42.1,28.9,60,30.50,10.0,NNE,8.1,-,N/A,,Clear,20,2013-11-25 20:51:00
4:51 PM,39.0,30.0,70,30.48,10.0,NNE,4.6,-,N/A,,Clear,30,2013-11-25 21:51:00
5:51 PM,39.0,30.9,73,30.49,10.0,NNE,4.6,-,N/A,,Clear,30,2013-11-25 22:51:00
6:51 PM,39.9,32.0,73,30.48,10.0,NE,5.8,-,N/A,,Clear,40,2013-11-25 23:51:00
7:51 PM,39.9,33.1,77,30.48,10.0,Variable,4.6,-,N/A,,Clear,0,2013-11-26 00:51:00
8:51 PM,41.0,35.1,79,30.47,10.0,NNE,4.6,-,N/A,,Clear,30,2013-11-26 01:51:00
9:51 PM,41.0,36.0,82,30.44,10.0,NE,6.9,-,N/A,,Clear,40,2013-11-26 02:51:00
10:51 PM,42.1,37.9,85,30.42,10.0,NNE,6.9,-,N/A,,Clear,30,2013-11-26 03:51:00
11:51 PM,42.1,39.0,89,30.39,10.0,NNE,3.5,-,N/A,,Clear,20,2013-11-26 04:51:00